Simultaneous Nadir Overpasses (SNOs) Predictions

Prediction of SNOs between GOES-17 and LANDSAT-8 Satellite Orbit:

Table of predicted SNOs for the next 14.0 days since TLE Epoch: 2/10/2024
Index Date Time (GOES-17) GOES-17 Lat,Lon LANDSAT-8 Lat,Lon Distance(km) Time Diff (sec)
1 02/10/2024 04:54:58 -0.00,-104.69 0.78,-101.11 407.36 80
2 02/10/2024 17:16:13 -0.00,-104.69 0.35,-106.26 178.76 80
3 02/12/2024 17:06:41 0.00,-104.70 -0.27,-103.30 158.27 80
4 02/13/2024 05:28:04 0.00,-104.70 -0.83,-108.49 431.85 80
5 02/14/2024 16:54:29 0.01,-104.71 -0.92,-100.35 495.51 80
6 02/15/2024 05:15:53 -0.00,-104.71 -0.17,-105.54 94.64 80
7 02/17/2024 05:01:00 -0.00,-104.71 0.44,-102.58 242.52 80
8 02/17/2024 17:22:15 -0.00,-104.71 0.61,-107.74 344.02 80
9 02/19/2024 17:10:01 -0.00,-104.72 0.03,-104.77 7.13 80
10 02/21/2024 17:00:29 -0.00,-104.72 -0.63,-101.82 331.10 80
11 02/22/2024 05:21:51 0.01,-104.73 -0.50,-107.00 258.39 80
